Visibility
15.0 15.0 15.0 15.0 15.0 15.0 15.0 15.0 15.0 15.0 15.0 15.0 15.0 15.0 15.0 15.0 15.0 15.0 15.0 15.0 15.0 15.0 15.0 15.0 15.0 15.0 15.0 15.0 15.0 15.0 15.0 15.0 15.0 15.0 15.0 15.0 15.0 15.0 15.0 15.0 15.0 15.0 15.0
15.0 15.0 15.0 15.0 15.0 15.0 15.0 15.0 15.0 15.0 15.0 15.0 15.0 15.0 15.0 15.0 15.0 15.0 15.0 15.0 15.0 15.0 15.0 15.0 15.0 15.0 15.0 15.0 15.0 15.0 15.0 15.0 15.0 15.0 15.0 15.0 15.0 15.0 15.0 15.0 15.0 15.0 15.0
15.0 15.0 15.0 15.0 15.0 15.0 15.0 15.0 15.0 15.0 15.0 15.0 15.0 15.0 15.0 15.0 15.0 15.0 15.0 15.0 15.0 15.0 15.0 15.0 15.0 15.0 15.0 15.0 15.0 15.0 15.0 15.0 15.0 15.0 15.0 15.0 15.0 15.0 15.0 15.0 15.0 15.0 15.0
15.0 15.0 15.0 15.0 15.0 15.0 15.0 15.0 15.0 15.0 15.0 15.0 15.0 15.0 15.0 15.0 15.0 15.0 15.0 15.0 15.0 15.0 15.0 15.0 15.0 15.0 15.0 15.0 15.0 15.0 15.0 15.0 15.0 15.0 15.0 15.0 15.0 15.0 15.0 15.0 15.0 15.0 15.0
15.0 15.0 15.0 15.0 15.0 15.0 15.0 15.0 15.0 15.0 15.0 9.3 15.0 15.0 15.0 15.0 15.0 15.0 15.0 15.0 15.0 15.0 15.0 15.0 15.0 15.0 15.0 15.0 15.0 15.0 15.0 15.0 15.0 15.0 15.0 15.0 15.0 15.0 15.0 15.0 15.0 15.0 15.0
15.0 15.0 15.0 15.0 15.0 15.0 15.0 15.0 15.0 15.0 15.0 15.0 15.0 15.0 15.0 15.0 15.0 15.0 15.0 15.0 15.0 15.0 15.0 15.0 15.0 15.0 15.0 15.0 15.0 15.0 15.0 15.0 15.0 7.2 14.8 9.2 15.0 15.0 15.0 7.1 2.1 1.4 2.0
15.0 15.0 15.0 15.0 15.0 12.3 15.0 15.0 15.0 15.0 15.0 15.0 15.0 15.0 15.0 15.0 15.0 15.0 15.0 15.0 15.0 15.0 15.0 15.0 15.0 15.0 15.0 15.0 15.0 15.0 15.0 15.0 15.0 15.0 14.7 15.0 15.0 15.0 15.0 1.0 1.5 0.4 1.3
15.0 15.0 15.0 15.0 15.0 13.9 15.0 15.0 15.0 15.0 15.0 13.2 15.0 15.0 15.0 15.0 15.0 15.0 15.0 15.0 15.0 15.0 15.0 15.0 15.0 15.0 15.0 15.0 15.0 15.0 15.0 15.0 15.0 15.0 15.0 15.0 15.0 15.0 15.0 15.0 13.3 15.0 15.0
15.0 15.0 15.0 15.0 8.6 14.8 15.0 15.0 15.0 15.0 15.0 15.0 15.0 15.0 15.0 15.0 15.0 15.0 15.0 15.0 15.0 15.0 15.0 15.0 15.0 15.0 15.0 15.0 15.0 15.0 15.0 15.0 15.0 15.0 15.0 15.0 15.0 15.0 15.0 15.0 12.9 2.5 7.8
15.0 15.0 15.0 6.1 11.8 15.0 15.0 15.0 15.0 15.0 15.0 15.0 15.0 15.0 15.0 15.0 15.0 15.0 15.0 15.0 15.0 15.0 15.0 15.0 15.0 15.0 15.0 15.0 15.0 15.0 6.2 15.0 15.0 15.0 15.0 15.0 15.0 15.0 15.0 15.0 12.6 1.1 7.0
15.0 15.0 15.0 15.0 15.0 15.0 15.0 15.0 15.0 15.0 15.0 15.0 15.0 15.0 15.0 15.0 15.0 15.0 15.0 15.0 15.0 15.0 15.0 15.0 15.0 15.0 15.0 15.0 15.0 15.0 15.0 15.0 15.0 15.0 14.7 11.0 15.0 14.9 15.0 15.0 15.0 15.0 2.3
15.0 15.0 15.0 15.0 15.0 15.0 15.0 15.0 15.0 15.0 15.0 15.0 15.0 10.9 6.9 15.0 15.0 15.0 15.0 15.0 11.4 15.0 15.0 15.0 15.0 15.0 15.0 15.0 15.0 15.0 15.0 15.0 5.8 4.2 4.0 4.1 4.3 15.0 15.0 15.0 15.0 15.0 15.0
15.0 15.0 15.0 15.0 15.0 15.0 15.0 15.0 15.0 15.0 12.6 15.0 3.5 2.7 3.6 14.1 10.1 10.9 15.0 15.0 15.0 15.0 15.0 15.0 15.0 15.0 15.0 15.0 15.0 15.0 15.0 4.5 3.9 1.5 4.1 4.1 9.8 15.0 14.3 6.9 15.0 15.0 15.0
15.0 15.0 15.0 15.0 15.0 15.0 15.0 15.0 15.0 13.7 6.3 15.0 15.0 15.0 15.0 15.0 15.0 15.0 15.0 14.7 15.0 14.1 15.0 15.0 15.0 15.0 15.0 13.4 5.3 13.4 4.1 4.1 4.2 4.1 4.1 4.1 4.1 4.1 4.9 10.4 4.1 15.0 3.3
15.0 15.0 15.0 15.0 15.0 15.0 15.0 15.0 15.0 15.0 15.0 15.0 15.0 15.0 15.0 15.0 15.0 15.0 15.0 14.9 14.7 4.4 15.0 15.0 15.0 10.8 15.0 15.0 10.3 4.5 4.1 4.1 4.1 4.1 4.1 4.1 4.4 4.7 15.0 15.0 15.0 6.4 4.5
15.0 15.0 15.0 15.0 15.0 15.0 15.0 15.0 15.0 13.7 15.0 15.0 15.0 15.0 15.0 15.0 15.0 15.0 15.0 15.0 15.0 7.7 15.0 15.0 12.3 11.7 15.0 14.1 15.0 11.4 4.1 4.8 7.2 11.5 4.3 4.1 4.2 4.8 4.6 14.9 15.0 5.3 4.4
15.0 15.0 15.0 15.0 15.0 15.0 6.6 13.4 12.9 10.9 6.9 15.0 15.0 15.0 15.0 15.0 15.0 15.0 15.0 14.5 1.5 1.0 14.9 15.0 10.8 15.0 15.0 15.0 15.0 4.6 4.1 10.3 15.0 15.0 4.4 4.1 4.1 4.8 4.2 7.1 7.9 4.8 2.2
15.0 15.0 15.0 15.0 15.0 15.0 14.2 8.6 12.6 13.5 11.8 0.9 15.0 15.0 12.7 15.0 15.0 12.1 0.1 0.1 0.1 0.4 15.0 15.0 15.0 15.0 15.0 15.0 9.2 4.1 8.0 15.0 15.0 15.0 5.8 4.1 4.1 9.6 4.1 3.8 4.2 1.0 0.8
15.0 15.0 15.0 15.0 15.0 15.0 15.0 15.0 13.4 15.0 15.0 9.3 10.0 0.4 4.8 8.4 1.3 0.1 0.1 0.7 0.6 7.6 15.0 15.0 15.0 15.0 15.0 11.6 8.4 14.2 15.0 15.0 15.0 15.0 14.9 4.6 10.7 4.8 5.0 5.7 5.9 3.9 1.9
15.0 15.0 15.0 15.0 15.0 15.0 15.0 15.0 15.0 15.0 15.0 15.0 6.1 0.1 0.5 0.2 0.1 0.1 0.1 5.5 15.0 15.0 15.0 15.0 15.0 15.0 15.0 14.0 10.6 15.0 15.0 15.0 15.0 9.8 12.5 5.2 4.9 4.6 0.7 0.7 1.0 0.7 0.9
15.0 15.0 15.0 15.0 15.0 15.0 15.0 15.0 15.0 15.0 15.0 15.0 13.5 1.8 0.4 0.1 0.1 0.1 0.1 1.3 15.0 15.0 15.0 15.0 15.0 15.0 15.0 15.0 15.0 15.0 14.8 15.0 15.0 15.0 14.6 4.3 4.3 0.6 3.3 1.1 1.3 0.5 0.6
15.0 15.0 15.0 15.0 15.0 15.0 15.0 15.0 15.0 15.0 15.0 15.0 1.5 2.5 0.1 0.1 0.1 0.1 0.1 15.0 15.0 15.0 15.0 15.0 15.0 15.0 15.0 15.0 15.0 1.7 1.6 1.2 6.2 12.7 3.9 1.2 2.2 4.0 1.8 0.6 0.7 0.6 0.9
14.9 13.4 10.8 11.3 15.0 15.0 14.5 15.0 15.0 15.0 15.0 15.0 9.7 0.1 0.1 0.1 0.1 0.2 14.7 15.0 14.6 8.8 14.9 14.4 11.8 15.0 15.0 15.0 14.7 2.0 0.9 2.1 10.3 4.0 0.5 1.3 2.2 1.5 1.2 0.4 0.7 0.5 0.9
10.8 10.1 11.4 9.0 10.1 10.5 11.2 14.8 14.9 15.0 15.0 1.9 0.1 0.1 0.1 0.1 1.3 10.8 14.7 4.1 13.3 15.0 15.0 15.0 15.0 15.0 15.0 15.0 1.2 0.3 0.4 0.4 0.1 0.4 0.3 0.3 0.5 1.7 1.0 0.4 0.7 0.7 0.8
8.1 7.8 8.2 7.9 7.9 8.7 12.6 14.7 8.0 0.3 0.1 0.1 0.1 0.1 1.7 6.0 13.2 4.5 4.1 13.9 13.9 4.7 15.0 15.0 14.0 15.0 14.8 1.0 0.4 3.5 1.2 1.8 0.5 0.3 0.3 0.7 0.4 0.4 0.3 0.3 0.4 1.1 3.4
15.0 14.6 9.1 7.9 7.1 6.7 3.6 0.8 0.3 0.3 0.4 0.3 1.1 4.9 14.3 14.6 8.1 5.5 8.6 4.2 4.1 4.1 8.2 7.1 14.2 15.0 5.7 4.9 13.4 8.7 3.8 1.3 0.6 1.8 1.2 0.4 0.4 0.5 0.5 0.4 1.5 3.9 5.9